[[{"header":{"parameterUnit":"m.s-1","parameterCategory":1,"la1":30.2991,"la2":30.254,"lo1":-89.0895,"lo2":-89.0444,"dy":0.0017,"dx":0.0017,"nx":28,"ny":28,"refTime":"2024-03-12T09:00:00:Z","depth":0,"parameterNumber":2,"parameterNumberName":"U-component_of_WINDS"},"data":[0,0,0,0,0,0,0,0,0,0,0,0,0,0,0,0,0,0,0,0,0,0,0,0,0,0,0,0,0,0,0,0,0,0,0,0,0,0,0,0,0,0,0,0,0,0,0,0,0,0,0,0,0,0,0,0,0,0,-4.0079,-4.0081,0,-4.02,-4.0202,-4.0203,-4.02,-4.0198,-4.0196,-4.0195,-4.0318,-4.0323,-4.0327,0,0,0,0,0,0,0,0,0,0,0,0,0,-3.9845,-3.9849,-4.0079,-4.0081,-4.0082,-4.02,-4.0202,-4.0204,-4.02,-4.0198,-4.0196,-4.0194,-4.0316,-4.0322,-4.0328,0,0,0,0,0,0,0,0,0,0,0,0,0,-3.9954,-3.9851,-4.0079,-4.0095,-4.0097,-4.02,-4.0202,-4.0204,-4.02,-4.0198,-4.0195,-4.0193,-4.0314,-4.0321,-4.0329,-4.0423,0,0,-4.0351,-4.0354,0,0,0,0,0,0,0,0,-3.9948,-3.9963,-4.0091,-4.0094,-4.0097,-4.0182,-4.0164,-4.0278,-4.0201,-4.0161,-4.0195,-4.0192,-4.0275,-4.0285,-4.0313,-4.0429,-4.0434,-4.0351,-4.0356,-4.0359,-4.0361,0,0,0,0,0,0,0,-3.9941,-3.9958,-4.0127,-4.0093,-4.0096,-4.0096,-4.0109,-4.0186,-4.023,-4.0164,-4.0164,-4.0179,-4.0276,-4.0306,-4.0316,-4.0436,-4.0351,-4.0358,-4.0362,-4.0365,-4.0636,-4.0639,0,0,0,0,0,0,-3.993,-3.9951,-4.0123,-4.0131,-4.0015,-4.0102,-4.0116,-4.0157,-4.023,-4.0238,-4.0181,-4.0178,-4.0295,-4.0308,-4.032,-4.0435,-4.0359,-4.0366,-4.037,-4.0633,-4.0637,-4.064,0,0,0,0,0,0,-3.9925,-3.9945,-4.0118,-4.0041,-4.0063,-4.0109,-4.0155,-4.0161,-4.0191,-4.0242,-4.025,-4.0204,-4.0294,-4.031,-4.0398,-4.044,-4.0369,-4.0375,-4.063,-4.0634,-4.0638,-4.0666,0,0,0,0,0,0,-3.9918,-3.9943,-3.9979,-4.0042,-4.0067,-4.0194,-4.0158,-4.0165,-4.0204,-4.0202,-4.0266,-4.0274,-4.0293,-4.0387,-4.0405,-4.0448,-4.0381,-4.0626,-4.0632,-4.0637,-4.0662,-4.0671,-4.0679,0,0,0,0,0,-3.991,-3.9982,-3.9981,-4.0002,-4.0114,-4.0196,-4.021,-4.0231,-4.0207,-4.0244,-4.0277,-4.0272,-4.0433,-4.0396,-4.0416,-4.0462,-4.0624,-4.063,-4.0637,-4.0658,-4.0669,-4.0679,0,0,0,0,0,0,-3.9923,-3.9991,-3.999,-4.0085,-4.0135,-4.0195,-4.0242,-4.0243,-4.03,-4.0295,-4.0319,-4.0333,-4.0421,-4.0451,-4.0409,-4.0558,-4.0525,-4.0536,-4.0535,-4.0546,-4.0554,-4.0544,-4.0387,0,0,0,0,0,-3.9937,-3.9998,-4.0054,-4.0133,-4.0158,-4.0196,-4.0233,-4.0245,-4.0297,-4.0318,-4.0357,-4.0408,-4.047,-4.051,-4.057,-4.0667,-4.0681,-4.0709,-4.0718,-4.0725,-4.0733,-4.0786,-4.0799,-4.0661,-4.0661,-4.0661,0,0,-3.9966,-4.0011,-4.0048,-4.0137,-4.0177,-4.0239,-4.0213,-4.0281,-4.0328,-4.0328,-4.0412,-4.0444,-4.0502,-4.0595,-4.0638,-4.0622,-4.0775,-4.0733,-4.0738,-4.0742,-4.0794,-4.0807,-4.0819,-4.0665,-4.0665,-4.0664,0,0,-4.0051,-4.0092,-4.0161,-4.0202,-4.0263,-4.0288,-4.0305,-4.0366,-4.0387,-4.0473,-4.0474,-4.0531,-4.0637,-4.0678,-4.0713,-4.0817,-4.0813,-4.0836,-4.0879,-4.0931,-4.0942,-4.0952,-4.0987,-4.1,-4.0845,-4.0845,-4.0845,0,-4.008,-4.0174,-4.0197,-4.0265,-4.0304,-4.0308,-4.0379,-4.0418,-4.0495,-4.0522,-4.0504,-4.0639,-4.0678,-4.078,-4.0806,-4.0835,-4.0854,-4.0827,-4.0939,-4.0949,-4.0958,-4.0992,-4.1005,-4.0847,-4.0847,-4.0846,-4.0846,0,-4.0206,-4.0272,-4.0321,-4.0395,-4.044,-4.0509,-4.0542,-4.0585,-4.0595,-4.0622,-4.0709,-4.0758,-4.0827,-4.0853,-4.0863,-4.0957,-4.0946,-4.0934,-4.09,-4.0973,-4.1005,-4.1018,-4.085,-4.0849,-4.0848,-4.0848,0,0,-4.0299,-4.0387,-4.0405,-4.0439,-4.0508,-4.0559,-4.0629,-4.0697,-4.0733,-4.0787,-4.0846,-4.0937,-4.0926,-4.0966,-4.0981,-4.1027,-4.1104,-4.1009,-4.101,-4.1023,-4.121,-4.1217,-4.1232,-4.1104,-4.1107,-4.1109,-4.1205,0,-4.039,-4.0513,-4.0537,-4.0644,-4.0704,-4.0711,-4.0772,-4.082,-4.0848,-4.0904,-4.0935,-4.0999,-4.0981,-4.1005,-4.1051,-4.1085,-4.1141,-4.1079,-4.1157,-4.116,-4.1139,-4.1249,-4.1256,-4.1344,-4.1218,-4.122,-4.1221,0,-4.0511,-4.0569,-4.0682,-4.0743,-4.0769,-4.0823,-4.0888,-4.0942,-4.0998,-4.1015,-4.1061,-4.1071,-4.1143,-4.111,-4.121,-4.1167,-4.1201,-4.1223,-4.1227,-4.1232,-4.1193,-4.1255,-4.1373,-4.1385,-4.1242,-4.124,-4.1239,0,-4.0566,-4.0672,-4.0753,-4.0782,-4.0856,-4.0894,-4.0926,-4.098,-4.102,-4.1077,-4.1103,-4.1169,-4.1204,-4.1255,-4.1282,-4.1255,-4.138,-4.1349,-4.1396,-4.1395,-4.1419,-4.1416,-4.1541,-4.1445,-4.1445,-4.1445,-4.1445,0,-4.0663,-4.0732,-4.0778,-4.0828,-4.0905,-4.0933,-4.1008,-4.104,-4.1088,-4.1144,-4.1155,-4.1208,-4.1242,-4.13,-4.1322,-4.1401,-4.1418,-4.1433,-4.1437,-4.143,-4.1428,-4.1451,-4.1445,-4.1449,-4.1448,-4.1447,-4.1446,0,-4.0736,-4.077,-4.0859,-4.0922,-4.0939,-4.0993,-4.1047,-4.1096,-4.1125,-4.1196,-4.1214,-4.126,-4.1328,-4.1361,-4.1446,-4.1462,-4.1551,-4.1552,-4.1531,-4.1532,-4.1577,-4.1571,-4.1718,-4.1738,-4.1631,-4.1632,-4.1633,0,-4.0794,-4.0847,-4.0916,-4.0954,-4.0988,-4.105,-4.1091,-4.1121,-4.1163,-4.1232,-4.1272,-4.1341,-4.1397,-4.1507,-4.1547,-4.1612,-4.1615,-4.1662,-4.1624,-4.1616,-4.1613,-4.1608,-4.1613,-4.1667,-4.1668,-4.1669,-4.167,0,-4.0894,-4.0909,-4.0967,-4.1032,-4.1081,-4.1134,-4.1186,-4.1217,-4.1255,-4.1302,-4.1372,-4.1416,-4.1504,-4.1572,-4.164,-4.1674,-4.1678,-4.1682,-4.1696,-4.1688,-4.1673,-4.168,-4.1547,-4.1678,-4.1677,-4.1676,-4.1676,-4.1676,-4.096,-4.1007,-4.1063,-4.1128,-4.117,-4.1219,-4.1268,-4.1303,-4.1362,-4.1435,-4.145,-4.1524,-4.158,-4.1672,-4.1709,-4.1767,-4.1757,-4.1777,-4.1782,-4.1786,-4.1787,-4.1666,-4.178,-4.178,-4.178,-4.178,-4.178,0,-4.1058,-4.1095,-4.1155,-4.1227,-4.1279,-4.128,-4.1338,-4.138,-4.1445,-4.1497,-4.1553,-4.1634,-4.1701,-4.1747,-4.1815,-4.1853,-4.1857,-4.187,-4.1866,-4.1873,-4.1794,-4.1774,-4.1865,-4.1865,-4.1865,-4.1865,-4.1865,-4.1865,-4.1115,-4.1195,-4.1216,-4.1317,-4.1354,-4.1426,-4.1459,-4.1504,-4.1545,-4.1635,-4.169,-4.1721,-4.1771,-4.1843,-4.1904,-4.1916,-4.194,-4.1952,-4.1964,-4.1888,-4.1879,-4.187,-4.1852,-4.1958,-4.1958,-4.2038,-4.2039,-4.204]},{"header":{"parameterUnit":"m.s-1","parameterCategory":1,"la1":30.2991,"la2":30.254,"lo1":-89.0895,"lo2":-89.0444,"dy":0.0017,"dx":0.0017,"nx":28,"ny":28,"refTime":"2024-03-12T09:00:00:Z","depth":0,"parameterNumber":3,"parameterNumberName":"V-component_of_WINDS"},"data":[0,0,0,0,0,0,0,0,0,0,0,0,0,0,0,0,0,0,0,0,0,0,0,0,0,0,0,0,0,0,0,0,0,0,0,0,0,0,0,0,0,0,0,0,0,0,0,0,0,0,0,0,0,0,0,0,0,0,2.4596,2.4598,0,2.472,2.4722,2.4723,2.4743,2.4742,2.4741,2.474,2.4866,2.487,2.4874,0,0,0,0,0,0,0,0,0,0,0,0,0,2.4377,2.4381,2.4596,2.4598,2.4599,2.472,2.4722,2.4723,2.4743,2.4742,2.4741,2.4739,2.4864,2.4869,2.4875,0,0,0,0,0,0,0,0,0,0,0,0,0,2.4484,2.4383,2.4596,2.4624,2.4628,2.472,2.4722,2.4724,2.4744,2.4742,2.474,2.4739,2.4863,2.4869,2.4875,2.4948,0,0,2.4895,2.4898,0,0,0,0,0,0,0,0,2.4478,2.4492,2.4618,2.4622,2.4626,2.4715,2.4691,2.4799,2.4744,2.47,2.474,2.4738,2.4817,2.4827,2.4854,2.4954,2.4959,2.4896,2.49,2.4903,2.4904,0,0,0,0,0,0,0,2.4471,2.4487,2.4645,2.462,2.4625,2.463,2.4644,2.4711,2.4766,2.4703,2.4705,2.4719,2.4819,2.4847,2.4857,2.4961,2.4896,2.4901,2.4905,2.4908,2.513,2.5131,0,0,0,0,0,0,2.4458,2.448,2.4641,2.4649,2.4547,2.4636,2.4651,2.4688,2.4765,2.4775,2.4721,2.472,2.4837,2.4849,2.4861,2.4953,2.4903,2.4909,2.4912,2.5128,2.513,2.5132,0,0,0,0,0,0,2.4453,2.4472,2.4636,2.4565,2.4587,2.4641,2.4683,2.4691,2.472,2.4778,2.4788,2.474,2.4836,2.4852,2.4927,2.4958,2.4912,2.4918,2.5125,2.5128,2.5131,2.5136,0,0,0,0,0,0,2.4447,2.447,2.4498,2.4566,2.459,2.47,2.4685,2.4695,2.4731,2.4731,2.4799,2.4808,2.4836,2.4917,2.4933,2.4966,2.4923,2.5123,2.5127,2.513,2.5134,2.5139,2.5144,0,0,0,0,0,2.4439,2.4494,2.45,2.4519,2.4626,2.4702,2.4716,2.4747,2.4734,2.4763,2.48,2.4806,2.4951,2.4925,2.4943,2.4978,2.5121,2.5126,2.513,2.5131,2.5138,2.5144,0,0,0,0,0,0,2.4428,2.4503,2.451,2.4589,2.4639,2.4705,2.4742,2.4752,2.4807,2.4804,2.484,2.4855,2.4929,2.4961,2.4929,2.5054,2.5035,2.5044,2.503,2.5037,2.5042,2.5033,2.4928,0,0,0,0,0,2.4435,2.449,2.4552,2.4616,2.4641,2.4687,2.4721,2.4741,2.4794,2.4815,2.4858,2.4909,2.4966,2.5003,2.5059,2.5138,2.5154,2.5171,2.5176,2.518,2.5187,2.5234,2.5243,2.5147,2.5147,2.5147,0,0,2.445,2.4497,2.453,2.4615,2.4656,2.4712,2.4705,2.4764,2.4807,2.4823,2.4898,2.4931,2.499,2.5068,2.5105,2.5097,2.5218,2.5186,2.5189,2.5194,2.5239,2.5248,2.5256,2.515,2.5149,2.5149,0,0,2.4505,2.4546,2.4605,2.4646,2.4709,2.474,2.4753,2.4819,2.4842,2.4917,2.4931,2.4982,2.508,2.5122,2.5156,2.523,2.5238,2.5247,2.5274,2.5319,2.5326,2.5333,2.5361,2.537,2.5254,2.5254,2.5254,0,2.4515,2.4601,2.4633,2.4693,2.4731,2.4749,2.4809,2.4848,2.4925,2.4951,2.4941,2.5066,2.5107,2.5196,2.5214,2.5241,2.5259,2.524,2.5322,2.533,2.5337,2.5364,2.5374,2.5255,2.5255,2.5254,2.5254,0,2.4612,2.4671,2.471,2.4786,2.4828,2.4887,2.4929,2.4967,2.4984,2.5016,2.5093,2.5143,2.521,2.5233,2.5248,2.5325,2.5319,2.5315,2.5298,2.5346,2.5372,2.5383,2.5256,2.5255,2.5255,2.5255,0,0,2.4664,2.4757,2.4771,2.4806,2.4877,2.4924,2.4985,2.5051,2.5085,2.5137,2.519,2.5273,2.5271,2.531,2.5331,2.537,2.5428,2.5363,2.5365,2.5374,2.5517,2.552,2.5531,2.5433,2.5436,2.5437,2.5513,0,2.4729,2.4838,2.487,2.4962,2.5018,2.5037,2.509,2.514,2.5172,2.5224,2.5259,2.5318,2.531,2.5334,2.5374,2.5412,2.5457,2.5407,2.5484,2.5486,2.547,2.5545,2.5548,2.5617,2.5523,2.5525,2.5526,0,2.482,2.4876,2.4974,2.5039,2.5064,2.5111,2.5176,2.5225,2.5282,2.5303,2.5347,2.5365,2.543,2.5409,2.5499,2.5465,2.5498,2.5522,2.5525,2.5535,2.551,2.5558,2.5639,2.565,2.5542,2.5541,2.554,0,2.4851,2.495,2.5022,2.5051,2.5129,2.5162,2.5196,2.5251,2.529,2.5346,2.5372,2.5435,2.5469,2.5518,2.5553,2.5533,2.5641,2.5622,2.5661,2.566,2.5683,2.5682,2.5773,2.5702,2.5702,2.5702,2.5702,0,2.4921,2.4981,2.5037,2.5082,2.515,2.5185,2.5251,2.5286,2.5336,2.5388,2.5407,2.5456,2.5498,2.5553,2.558,2.5652,2.5667,2.5686,2.5693,2.5686,2.5683,2.5709,2.5705,2.5705,2.5704,2.5704,2.5703,0,2.4967,2.5007,2.5088,2.5155,2.5173,2.522,2.5278,2.5323,2.5355,2.5421,2.5438,2.549,2.5555,2.5595,2.5677,2.5695,2.5776,2.578,2.5757,2.576,2.5797,2.5794,2.5909,2.5927,2.5843,2.5843,2.5844,0,2.5011,2.5057,2.513,2.5166,2.5201,2.5259,2.5299,2.5336,2.5377,2.5446,2.5482,2.5549,2.5604,2.5708,2.5753,2.5816,2.5823,2.5859,2.5833,2.5824,2.5826,2.5823,2.5829,2.5864,2.5865,2.5865,2.5866,0,2.5084,2.5102,2.5158,2.5223,2.527,2.5322,2.5374,2.5403,2.5448,2.5493,2.5561,2.5604,2.5689,2.5755,2.5823,2.5858,2.587,2.5874,2.5886,2.588,2.5865,2.5875,2.577,2.5871,2.587,2.587,2.587,2.587,2.5131,2.5174,2.5233,2.5296,2.5339,2.5387,2.5433,2.5472,2.5528,2.5601,2.5619,2.569,2.5747,2.584,2.5876,2.5933,2.5927,2.5945,2.595,2.5954,2.5956,2.5855,2.5945,2.5945,2.5945,2.5945,2.5945,0,2.5207,2.5246,2.5303,2.5376,2.5426,2.5433,2.5491,2.5533,2.5595,2.5647,2.5702,2.578,2.5845,2.5895,2.5962,2.5998,2.6005,2.6014,2.6013,2.6021,2.5957,2.594,2.6007,2.6007,2.6007,2.6007,2.6007,2.6007,2.5253,2.5327,2.5351,2.5447,2.5485,2.5556,2.5589,2.5634,2.5676,2.5763,2.5817,2.5849,2.5902,2.5972,2.6033,2.6046,2.607,2.6079,2.6093,2.6032,2.6025,2.6019,2.6003,2.6083,2.6083,2.6153,2.6154,2.6154]}]]